Indianapolis, IN

5:22 AM EDT on May 30, 2017 (GMT -0400)
Indianapolis International

Weather History for KIND - March, 2013

Change the Weather History Date:

Thursday, March 7, 2013

  Actual Average Record
Temperature  
Mean Temperature 32 °F 39 °F  
Max Temperature 35 °F 48 °F 78 °F (1974)
Min Temperature 28 °F 30 °F -1 °F (1943)
Degree Days  
Heating Degree Days 33 26  
Month to date heating degree days 241 191  
Since 1 July heating degree days 4252 4334  
Cooling Degree Days 0 0  
Month to date cooling degree days 0 0  
Year to date cooling degree days 0 0  
Moisture  
Dew Point 25 °F    
Average Humidity 76    
Maximum Humidity 92    
Minimum Humidity 59    
Precipitation  
Precipitation T in 0.11 in 1.45 in (1995)
Month to date precipitation 0.55 0.70  
Year to date precipitation 8.33 5.68  
Snow  
Snow T in 0.10 in 4.00 in (1931)
Month to date snowfall 4.6 0.9  
Since 1 July snowfall 24.6 24.0  
Snow Depth 3.00 in    
Sea Level Pressure  
Sea Level Pressure 30.37 in    
Wind  
Wind Speed 6 mph (NW)    
Max Wind Speed 12 mph    
Max Gust Speed 15 mph    
Visibility 9 miles    
Events Snow    
T = Trace of Precipitation, MM = Missing Value Source: NWS Daily Summary

Daily Weather History Graph

Daily Weather History Graph

Search for Another Location

Airport or City:

Trip Planner

Search our weather history database for the weather conditions in past years. The results will help you decide how hot, cold, wet, or windy it might be!

Date:

Astronomy

Mar. 07, 2013 Rise Set
Actual Time 7:08 AM EST 6:43 PM EST
Civil Twilight 6:41 AM EST 7:10 PM EST
Nautical Twilight 6:10 AM EST 7:42 PM EST
Astronomical Twilight 5:39 AM EST 8:13 PM EST
Moon 4:07 AM EST (3/7) 2:31 PM EST (3/7)
Length of Visible Light 12h 29m
Length of Day
11h 35m
Waning Crescent, 20% of the Moon is Illuminated
Mar 7
Waning Crescent
Mar 11
New
Mar 19
First Quarter
Mar 27
Full
Apr 3
Last Quarter

Hourly Weather History & Observations

Time (EST) Temp. Windchill Dew Point Humidity Pressure Visibility Wind Dir Wind Speed Gust Speed Precip Events Conditions
12:54 AM 28.0 °F 19.3 °F 25.0 °F 88% 30.29 in 7.0 mi WNW 9.2 mph - 0.00 in Snow Light Snow
1:54 AM 28.0 °F 20.0 °F 25.0 °F 88% 30.30 in 9.0 mi WNW 8.1 mph - 0.00 in Snow Light Snow
2:54 AM 28.0 °F 20.0 °F 25.0 °F 88% 30.30 in 9.0 mi WNW 8.1 mph - 0.00 in Snow Light Snow
3:54 AM 28.0 °F 18.6 °F 25.0 °F 88% 30.31 in 9.0 mi WNW 10.4 mph - 0.00 in Snow Light Snow
4:42 AM 28.4 °F 19.7 °F 24.8 °F 86% 30.29 in 8.0 mi WNW 9.2 mph - 0.00 in Snow Light Snow
4:54 AM 28.0 °F 18.6 °F 25.0 °F 88% 30.32 in 8.0 mi WNW 10.4 mph - 0.00 in Snow Light Snow
5:54 AM 28.0 °F 18.6 °F 25.0 °F 88% 30.33 in 8.0 mi NW 10.4 mph - 0.00 in Snow Light Snow
6:54 AM 28.0 °F 20.0 °F 25.0 °F 88% 30.35 in 8.0 mi NW 8.1 mph - 0.00 in   Overcast
7:54 AM 28.0 °F 20.8 °F 25.0 °F 88% 30.37 in 7.0 mi WNW 6.9 mph - N/A   Overcast
8:44 AM 28.4 °F 24.6 °F 24.8 °F 86% 30.35 in 7.0 mi WNW 3.5 mph - N/A   Overcast
8:54 AM 28.0 °F 22.8 °F 25.0 °F 88% 30.38 in 7.0 mi WNW 4.6 mph - N/A   Overcast
9:11 AM 28.4 °F 22.2 °F 24.8 °F 86% 30.36 in 7.0 mi WNW 5.8 mph - N/A   Overcast
9:54 AM 28.9 °F 25.2 °F 26.1 °F 89% 30.40 in 7.0 mi WNW 3.5 mph - N/A   Overcast
10:54 AM 30.9 °F 26.2 °F 27.0 °F 85% 30.40 in 8.0 mi West 4.6 mph - N/A   Overcast
11:45 AM 32.0 °F 27.5 °F 26.6 °F 80% 30.37 in 7.0 mi West 4.6 mph - N/A   Overcast
11:54 AM 32.0 °F 26.4 °F 27.0 °F 82% 30.40 in 8.0 mi West 5.8 mph - N/A   Overcast
12:54 PM 33.1 °F 27.7 °F 27.0 °F 78% 30.40 in 10.0 mi WNW 5.8 mph - N/A   Overcast
1:54 PM 35.1 °F 31.0 °F 27.0 °F 72% 30.37 in 10.0 mi West 4.6 mph - N/A   Overcast
2:54 PM 35.1 °F 29.3 °F 26.1 °F 70% 30.37 in 10.0 mi NW 6.9 mph - N/A   Overcast
3:54 PM 34.0 °F 28.8 °F 26.1 °F 73% 30.38 in 10.0 mi NW 5.8 mph - N/A   Overcast
4:54 PM 35.1 °F 30.1 °F 23.0 °F 61% 30.38 in 10.0 mi NW 5.8 mph - N/A   Overcast
5:54 PM 34.0 °F - 21.9 °F 61% 30.39 in 10.0 mi Calm Calm - N/A   Overcast
6:54 PM 34.0 °F 31.0 °F 23.0 °F 64% 30.40 in 10.0 mi NNW 3.5 mph - N/A   Overcast
7:54 PM 34.0 °F 28.8 °F 23.0 °F 64% 30.40 in 10.0 mi NNW 5.8 mph - N/A   Overcast
8:54 PM 33.1 °F 27.7 °F 23.0 °F 66% 30.40 in 10.0 mi North 5.8 mph - N/A   Overcast
9:54 PM 32.0 °F 26.4 °F 23.0 °F 69% 30.40 in 10.0 mi NE 5.8 mph - N/A   Mostly Cloudy
10:54 PM 32.0 °F 27.5 °F 23.0 °F 69% 30.41 in 10.0 mi NNE 4.6 mph - N/A   Mostly Cloudy
11:54 PM 30.9 °F - 23.0 °F 72% 30.41 in 10.0 mi Calm Calm - N/A   Mostly Cloudy